FW6484 Weather Reports


time (UTC)temp
F
wind
direction
speed
knots
gust
knots
rain 1hr
in
rain 24hr
in
rain mn
in
humidity
%
barometer
mb
20260510161537 79 283 0.9 5.2 0.00 0.00 0.00 43 1016.9
20260510160039 79 225 0.9 2.6 0.00 0.00 0.00 50 1016.8
20260510154550 78 271 1.7 7.8 0.00 0.00 0.00 46 1016.9
20260510153041 78 229 0.9 4.3 0.00 0.00 0.00 49 1016.8
20260510151548 77 180 0.9 5.2 0.00 0.00 0.00 53 1017.2
20260510150051 76 293 1.7 4.3 0.00 0.00 0.00 53 1017.1
20260510144544 76 0 0.9 3.5 0.00 0.00 0.00 56 1016.9
20260510143046 74 352 0.0 3.5 0.00 0.00 0.00 61 1016.8
20260510141543 73 295 0.9 4.3 0.00 0.00 0.00 60 1016.9
20260510140041 72 100 0.9 2.6 0.00 0.00 0.00 64 1016.7
20260510134545 71 327 0.0 3.5 0.00 0.00 0.00 67 1016.8
20260510133051 69 257 0.0 3.5 0.00 0.00 0.00 70 1016.8
20260510131545 67 336 0.0 2.6 0.00 0.00 0.00 79 1016.7
20260510130044 65 312 0.9 4.3 0.00 0.00 0.00 81 1016.4
20260510124553 61 296 0.0 2.6 0.00 0.00 0.00 92 1016.3
20260510123047 59 0 0.0 0.9 0.00 0.00 0.00 96 1016.0
20260510121546 58 0 0.0 0.9 0.00 0.00 0.00 96 1015.9
20260510120044 58 0 0.0 0.0 0.00 0.00 0.00 97 1015.7
20260510114551 57 0 0.0 0.0 0.00 0.00 0.00 96 1015.6
20260510113048 56 0 0.0 0.0 0.00 0.00 0.00 96 1015.4
20260510111539 56 0 0.0 0.0 0.00 0.00 0.00 95 1015.1
20260510110035 56 0 0.0 0.9 0.00 0.00 0.00 95 1014.9
20260510104538 56 0 0.0 0.9 0.00 0.00 0.00 95 1014.6
20260510103045 56 0 0.0 0.0 0.00 0.00 0.00 95 1014.4
20260510101543 57 0 0.0 0.0 0.00 0.00 0.00 95 1014.3
20260510100101 57 0 0.0 0.0 0.00 0.00 0.00 94 1014.2
20260510094556 57 0 0.0 0.9 0.00 0.00 0.00 94 1013.9
20260510093050 58 0 0.0 0.9 0.00 0.00 0.00 94 1013.8
20260510091545 58 0 0.0 0.9 0.00 0.00 0.00 94 1013.7
20260510090044 59 0 0.0 0.9 0.00 0.00 0.00 94 1013.6
20260510084540 59 0 0.0 0.0 0.00 0.00 0.00 94 1013.7
20260510083058 59 0 0.0 0.0 0.00 0.00 0.00 94 1013.6
20260510081547 59 0 0.0 0.0 0.00 0.00 0.00 94 1013.3
20260510080045 59 0 0.0 0.0 0.00 0.00 0.00 94 1013.3
20260510074546 59 0 0.0 0.0 0.00 0.00 0.00 94 1013.2
20260510073050 59 0 0.0 0.0 0.00 0.00 0.00 93 1012.9
20260510071549 59 0 0.0 0.0 0.00 0.00 0.00 93 1012.8
20260510070049 59 0 0.0 0.9 0.00 0.00 0.00 93 1012.9
20260510064551 60 0 0.0 0.0 0.00 0.00 0.00 93 1012.9
20260510063045 60 0 0.0 0.0 0.00 0.00 0.00 92 1012.9
20260510061540 60 0 0.0 0.0 0.00 0.00 0.00 92 1012.9
20260510060044 60 0 0.0 0.0 0.00 0.00 0.00 92 1013.0
20260510054541 60 0 0.0 0.0 0.00 0.00 0.00 92 1013.3
20260510053047 61 0 0.0 0.0 0.00 0.00 0.00 91 1013.3
20260510051601 61 0 0.0 0.0 0.00 0.00 0.00 91 1013.5
20260510050048 61 0 0.0 0.9 0.00 0.00 0.00 90 1013.6
20260510044547 62 0 0.0 0.9 0.00 0.00 0.00 90 1013.6
20260510043043 62 0 0.0 0.0 0.00 0.00 0.00 89 1013.4
20260510041542 62 0 0.0 0.0 0.00 0.00 0.00 89 1013.3
20260510040039 63 0 0.0 0.9 0.00 0.00 0.00 88 1013.4
20260510034535 62 0 0.0 0.9 0.00 0.00 0.00 89 1013.4
20260510033047 62 0 0.0 1.7 0.00 0.00 0.00 89 1013.4
20260510031542 62 0 0.0 1.7 0.00 0.00 0.00 89 1013.3
20260510030056 62 0 0.0 0.0 0.00 0.00 0.00 89 1013.4
20260510024541 62 0 0.0 1.7 0.00 0.00 0.00 89 1013.2
20260510023047 63 0 0.0 0.0 0.00 0.00 0.00 88 1013.2
20260510021545 63 0 0.0 0.0 0.00 0.00 0.00 88 1013.1
20260510020047 63 117 0.0 0.0 0.00 0.00 0.00 88 1012.9
20260510014547 63 0 0.0 0.9 0.00 0.00 0.00 87 1012.7
20260510013046 63 0 0.0 0.9 0.00 0.00 0.00 87 1012.4
20260510011548 64 0 0.0 0.9 0.00 0.00 0.00 86 1012.1
20260510010044 65 0 0.0 0.0 0.00 0.00 0.00 84 1011.9
20260510004547 66 0 0.0 0.0 0.00 0.00 0.00 83 1011.9
20260510003041 67 0 0.0 0.0 0.00 0.00 0.00 81 1011.8
20260510001547 68 0 0.0 0.9 0.00 0.00 0.00 79 1011.8
20260510000047 68 197 0.0 1.7 0.00 0.00 0.00 77 1011.6
20260509234544 69 0 0.0 1.7 0.00 0.00 0.00 76 1011.2
20260509233043 70 0 0.0 3.5 0.00 0.00 0.00 75 1011.3
20260509231542 70 0 0.0 1.7 0.00 0.00 0.00 74 1011.2
20260509230050 71 0 0.0 2.6 0.00 0.00 0.00 73 1010.8
20260509224547 71 113 0.0 2.6 0.00 0.00 0.00 72 1010.9
20260509223045 71 0 0.0 5.2 0.00 0.00 0.00 71 1011.0
20260509221542 71 5 0.9 3.5 0.00 0.00 0.00 70 1010.9
20260509220041 72 73 0.9 5.2 0.00 0.00 0.00 69 1010.9
20260509214548 72 82 0.0 3.5 0.00 0.00 0.00 70 1010.7
20260509213106 72 57 0.9 5.2 0.00 0.00 0.00 70 1010.7
20260509211549 72 80 0.0 6.1 0.00 0.00 0.00 71 1010.7
20260509210100 71 71 0.0 2.6 0.00 0.00 0.00 72 1010.5
20260509204549 72 71 0.9 7.8 0.00 0.00 0.00 69 1010.7
20260509203042 71 93 1.7 7.8 0.00 0.00 0.00 71 1010.6
20260509201547 71 113 0.9 5.2 0.00 0.00 0.00 70 1010.9
20260509200049 71 0 0.0 5.2 0.00 0.00 0.00 68 1011.0
20260509194545 71 36 0.9 8.7 0.00 0.00 0.00 70 1010.9
20260509193045 71 84 1.7 7.8 0.00 0.00 0.00 69 1011.2
20260509191549 71 80 1.7 3.5 0.00 0.00 0.00 68 1011.2
20260509190051 70 0 0.9 3.5 0.00 0.00 0.00 70 1011.3
20260509184549 69 126 0.9 4.3 0.00 0.00 0.00 70 1011.6
20260509183048 70 116 0.9 4.3 0.00 0.00 0.00 68 1011.6
20260509181557 71 121 0.9 6.1 0.00 0.00 0.00 65 1011.5
20260509180048 73 50 1.7 7.0 0.00 0.00 0.00 61 1011.8
20260509174547 72 68 0.9 7.0 0.00 0.00 0.00 67 1011.9
20260509173049 71 107 1.7 5.2 0.00 0.00 0.00 65 1012.0
20260509171549 70 165 1.7 7.0 0.00 0.00 0.00 67 1012.2
20260509170050 70 282 0.9 6.1 0.00 0.00 0.00 67 1012.7
20260509164545 70 230 0.9 7.8 0.00 0.00 0.00 69 1013.0
20260509163042 71 33 1.7 6.1 0.00 0.00 0.00 68 1012.9